• In Hungary
  • List of Countries
  • For 7 days
  • Water Temperature
  • Satellite Maps
  • Weather Map
  • News
  • Weather Widgets
  • user-avatar
    Login

    Hourly Weather Podhulanka

    Today, 19 September, Wednesday

    Time Temperature Precipitation Wind Pressure Humidity
    00:00 +20°C° 0 mm 4 mps 753 mmHg 68%
    01:00 +19°C° 0 mm 4 mps 753 mmHg 69%
    02:00 +19°C° 0 mm 4 mps 753 mmHg 69%
    03:00 +18°C° 0 mm 3 mps 753 mmHg 70%
    04:00 +18°C° 0 mm 3 mps 753 mmHg 70%
    05:00 +18°C° 0 mm 3 mps 753 mmHg 69%
    06:00 +19°C° 0 mm 3 mps 753 mmHg 68%
    07:00 +19°C° 0 mm 3 mps 754 mmHg 66%
    08:00 +21°C° 0 mm 3 mps 754 mmHg 62%
    09:00 +24°C° 0 mm 3 mps 754 mmHg 57%
    10:00 +26°C° 0 mm 3 mps 754 mmHg 52%
    11:00 +27°C° 0 mm 3 mps 754 mmHg 49%
    12:00 +28°C° 0 mm 3 mps 754 mmHg 45%
    13:00 +30°C° 0 mm 3 mps 754 mmHg 42%
    14:00 +30°C° 0 mm 3 mps 754 mmHg 43%
    15:00 +29°C° 0 mm 3 mps 754 mmHg 44%
    16:00 +29°C° 0 mm 2 mps 754 mmHg 45%
    17:00 +28°C° 0 mm 2 mps 754 mmHg 49%
    18:00 +26°C° 0 mm 2 mps 754 mmHg 54%
    19:00 +24°C° 0 mm 1 mps 754 mmHg 59%
    20:00 +24°C° 0 mm 1 mps 754 mmHg 61%
    21:00 +23°C° 0 mm 2 mps 755 mmHg 63%
    22:00 +23°C° 0 mm 2 mps 755 mmHg 65%
    23:00 +21°C° 0 mm 2 mps 755 mmHg 67%

    Tomorrow, 20 September, Thursday

    Time Temperature Precipitation Wind Pressure Humidity
    00:00 +21°C° 0 mm 2 mps 754 mmHg 69%
    01:00 +20°C° 0 mm 2 mps 754 mmHg 71%
    02:00 +20°C° 0 mm 2 mps 754 mmHg 73%
    03:00 +19°C° 0 mm 2 mps 754 mmHg 75%
    04:00 +19°C° 0 mm 2 mps 754 mmHg 76%
    05:00 +19°C° 0 mm 2 mps 754 mmHg 75%
    06:00 +20°C° 0 mm 2 mps 754 mmHg 75%
    07:00 +20°C° 0 mm 2 mps 754 mmHg 74%
    08:00 +22°C° 0 mm 3 mps 755 mmHg 67%
    09:00 +25°C° 0 mm 3 mps 755 mmHg 60%
    10:00 +27°C° 0 mm 3 mps 755 mmHg 53%
    11:00 +28°C° 0 mm 3 mps 754 mmHg 49%
    12:00 +29°C° 0 mm 3 mps 754 mmHg 46%
    13:00 +30°C° 0 mm 4 mps 754 mmHg 43%
    14:00 +30°C° 0 mm 3 mps 754 mmHg 44%
    15:00 +29°C° 0 mm 3 mps 754 mmHg 45%
    16:00 +29°C° 0 mm 3 mps 753 mmHg 46%
    17:00 +28°C° 0 mm 2 mps 753 mmHg 51%
    18:00 +26°C° 0 mm 2 mps 753 mmHg 57%
    19:00 +24°C° 0 mm 1 mps 753 mmHg 62%
    20:00 +24°C° 0 mm 1 mps 753 mmHg 64%
    21:00 +23°C° 0 mm 1 mps 753 mmHg 66%
    22:00 +22°C° 0 mm 1 mps 753 mmHg 68%
    23:00 +21°C° 0 mm 2 mps 753 mmHg 69%

    Day after tomorrow, 21 September, Friday

    Time Temperature Precipitation Wind Pressure Humidity
    00:00 +21°C° 0 mm 2 mps 753 mmHg 71%
    01:00 +20°C° 0 mm 2 mps 753 mmHg 72%
    02:00 +20°C° 0 mm 2 mps 753 mmHg 72%
    03:00 +20°C° 0 mm 2 mps 752 mmHg 72%
    04:00 +19°C° 0 mm 2 mps 752 mmHg 73%
    05:00 +20°C° 0 mm 3 mps 752 mmHg 71%
    06:00 +20°C° 0 mm 3 mps 752 mmHg 69%
    07:00 +21°C° 0 mm 4 mps 752 mmHg 68%
    08:00 +23°C° 0 mm 4 mps 751 mmHg 62%
    09:00 +26°C° 0 mm 5 mps 751 mmHg 56%
    10:00 +28°C° 0 mm 5 mps 751 mmHg 50%
    11:00 +28°C° 0 mm 6 mps 750 mmHg 46%
    12:00 +29°C° 0 mm 6 mps 749 mmHg 42%
    13:00 +30°C° 0 mm 7 mps 749 mmHg 38%
    14:00 +30°C° 0 mm 7 mps 748 mmHg 38%
    15:00 +29°C° 0 mm 6 mps 747 mmHg 38%
    16:00 +29°C° 0 mm 6 mps 747 mmHg 38%
    17:00 +28°C° 0 mm 6 mps 746 mmHg 40%
    18:00 +27°C° 0 mm 6 mps 746 mmHg 42%
    19:00 +24°C° 0 mm 6 mps 745 mmHg 44%
    20:00 +24°C° 0 mm 7 mps 745 mmHg 43%
    21:00 +24°C° 0 mm 7 mps 744 mmHg 42%
    22:00 +24°C° 0 mm 7 mps 744 mmHg 41%
    23:00 +22°C° 0 mm 8 mps 745 mmHg 48%

    22 September, Saturday

    Time Temperature Precipitation Wind Pressure Humidity
    00:00 +19°C° 0 mm 9 mps 745 mmHg 56%
    01:00 +17°C° 0 mm 9 mps 746 mmHg 63%
    02:00 +15°C° 0.6 mm 8 mps 747 mmHg 67%
    03:00 +12°C° 0.6 mm 8 mps 748 mmHg 72%
    04:00 +10°C° 0.6 mm 7 mps 750 mmHg 76%
    05:00 +11°C° 0.1 mm 7 mps 750 mmHg 73%
    06:00 +11°C° 0.1 mm 6 mps 751 mmHg 70%
    07:00 +11°C° 0.1 mm 6 mps 752 mmHg 67%
    08:00 +11°C° 0 mm 7 mps 752 mmHg 65%
    09:00 +11°C° 0 mm 7 mps 752 mmHg 63%
    10:00 +12°C° 0 mm 8 mps 752 mmHg 61%
    11:00 +12°C° 0 mm 7 mps 752 mmHg 59%
    12:00 +14°C° 0 mm 7 mps 752 mmHg 57%
    13:00 +14°C° 0 mm 7 mps 752 mmHg 55%
    14:00 +15°C° 0 mm 7 mps 752 mmHg 52%
    15:00 +15°C° 0 mm 7 mps 752 mmHg 50%
    16:00 +16°C° 0 mm 7 mps 752 mmHg 47%
    17:00 +14°C° 0 mm 6 mps 753 mmHg 51%
    18:00 +13°C° 0 mm 5 mps 753 mmHg 55%
    19:00 +12°C° 0 mm 4 mps 753 mmHg 59%
    20:00 +12°C° 0 mm 4 mps 753 mmHg 60%
    21:00 +11°C° 0 mm 4 mps 754 mmHg 61%
    22:00 +11°C° 0 mm 4 mps 754 mmHg 62%
    23:00 +11°C° 0 mm 4 mps 754 mmHg 64%

    23 September, Sunday

    Time Temperature Precipitation Wind Pressure Humidity
    00:00 +10°C° 0 mm 4 mps 754 mmHg 65%
    01:00 +10°C° 0 mm 4 mps 754 mmHg 67%
    02:00 +8°C° 0 mm 4 mps 754 mmHg 69%
    03:00 +8°C° 0 mm 4 mps 754 mmHg 72%
    04:00 +7°C° 0 mm 4 mps 754 mmHg 74%
    05:00 +8°C° 0 mm 4 mps 754 mmHg 73%
    06:00 +8°C° 0 mm 4 mps 754 mmHg 72%
    07:00 +8°C° 0 mm 4 mps 754 mmHg 71%
    08:00 +11°C° 0 mm 4 mps 754 mmHg 65%
    09:00 +12°C° 0 mm 5 mps 754 mmHg 58%
    10:00 +14°C° 0 mm 5 mps 754 mmHg 52%
    11:00 +14°C° 0 mm 5 mps 753 mmHg 48%
    12:00 +15°C° 0 mm 5 mps 752 mmHg 45%
    13:00 +16°C° 0 mm 5 mps 751 mmHg 41%
    14:00 +16°C° 0 mm 5 mps 751 mmHg 42%
    15:00 +16°C° 0 mm 5 mps 750 mmHg 43%
    16:00 +17°C° 0 mm 4 mps 749 mmHg 43%
    17:00 +15°C° 0 mm 5 mps 748 mmHg 47%
    18:00 +14°C° 0 mm 5 mps 747 mmHg 50%
    19:00 +13°C° 0 mm 6 mps 746 mmHg 54%
    20:00 +13°C° 0.7 mm 6 mps 745 mmHg 61%
    21:00 +11°C° 0.7 mm 6 mps 744 mmHg 67%
    22:00 +11°C° 0.7 mm 7 mps 743 mmHg 74%
    23:00 +11°C° 1.4 mm 7 mps 742 mmHg 75%

    24 September, Monday

    Time Temperature Precipitation Wind Pressure Humidity
    00:00 +11°C° 1.4 mm 7 mps 741 mmHg 75%
    01:00 +11°C° 1.4 mm 8 mps 740 mmHg 76%
    02:00 +11°C° 2.8 mm 7 mps 739 mmHg 79%
    03:00 +11°C° 2.8 mm 7 mps 739 mmHg 83%
    04:00 +11°C° 2.8 mm 6 mps 739 mmHg 86%
    05:00 +11°C° 0.4 mm 6 mps 738 mmHg 85%
    06:00 +11°C° 0.4 mm 6 mps 738 mmHg 83%
    07:00 +11°C° 0.4 mm 6 mps 737 mmHg 82%
    08:00 +11°C° 0 mm 7 mps 737 mmHg 77%
    09:00 +11°C° 0 mm 7 mps 737 mmHg 73%
    10:00 +12°C° 0 mm 8 mps 737 mmHg 69%
    11:00 +12°C° 0.1 mm 8 mps 737 mmHg 70%
    12:00 +12°C° 0.1 mm 8 mps 737 mmHg 70%
    13:00 +13°C° 0.1 mm 8 mps 737 mmHg 71%
    14:00 +12°C° 0.3 mm 8 mps 737 mmHg 72%
    15:00 +12°C° 0.3 mm 7 mps 737 mmHg 74%
    16:00 +12°C° 0.3 mm 7 mps 737 mmHg 75%
    17:00 +11°C° 0.1 mm 7 mps 737 mmHg 77%
    18:00 +10°C° 0.1 mm 6 mps 738 mmHg 79%
    19:00 +10°C° 0.1 mm 6 mps 738 mmHg 81%
    20:00 +10°C° 0 mm 6 mps 738 mmHg 82%
    21:00 +9°C° 0 mm 5 mps 739 mmHg 83%
    22:00 +10°C° 0 mm 4 mps 739 mmHg 83%
    23:00 +10°C° 0 mm 4 mps 739 mmHg 85%
    Show more